N858TH KAUS-MPMG

Flight info

Callsign N858TH
Flight time 3h 14m
Altitude 37000
Route CWK8 TNV DCT KLAMS A766 KEHLI UA766 LEVAT/N0516F390 UA766 SIGMA UM205 SPP UN420 TBG
Aircraft C750/M-SBDE3FGHRWXY/S

Departure

Time 2026-04-26 01:02
Airport Austin Bergstrom International Airport (KAUS)

Arrival

Time 2026-04-26 04:17
Airport Marcos A. Gelabert International Airport (MPMG)
Time Latitude Longitude Altitude Speed Heading
2026-04-26 00:26 30.18440 -97.66167 524 ft 0 kts
2026-04-26 00:55 30.18447 -97.66165 524 ft 3 kts 11°
2026-04-26 00:56 30.18478 -97.66138 524 ft 7 kts 67°
2026-04-26 00:56 30.18493 -97.66108 524 ft 3 kts 56°
2026-04-26 00:56 30.18501 -97.66090 524 ft 2 kts 67°
2026-04-26 00:56 30.18507 -97.66071 524 ft 6 kts 73°
2026-04-26 00:57 30.18514 -97.65999 524 ft 9 kts 83°
2026-04-26 00:57 30.18509 -97.65939 524 ft 6 kts 120°
2026-04-26 00:57 30.18474 -97.65941 524 ft 11 kts 186°
2026-04-26 00:57 30.18341 -97.65947 524 ft 27 kts 179°
2026-04-26 00:58 30.18151 -97.65940 524 ft 26 kts 180°
2026-04-26 00:58 30.18005 -97.65909 524 ft 16 kts 103°
2026-04-26 00:58 30.18081 -97.65866 523 ft 16 kts 359°
2026-04-26 00:58 30.18215 -97.65866 523 ft 22 kts
2026-04-26 00:59 30.18353 -97.65859 523 ft 18 kts 356°
2026-04-26 00:59 30.18468 -97.65866 523 ft 15 kts 355°
2026-04-26 00:59 30.18581 -97.65860 523 ft 16 kts
2026-04-26 00:59 30.18674 -97.65878 524 ft 12 kts 354°
2026-04-26 01:00 30.18748 -97.65877 524 ft 10 kts 360°
2026-04-26 01:00 30.18878 -97.65889 524 ft 28 kts 359°
2026-04-26 01:00 30.19136 -97.65889 524 ft 47 kts 359°
2026-04-26 01:00 30.19533 -97.65901 524 ft 64 kts
2026-04-26 01:01 30.19960 -97.65907 523 ft 59 kts 359°
2026-04-26 01:01 30.20314 -97.65914 524 ft 25 kts 359°
2026-04-26 01:01 30.20376 -97.65884 524 ft 0 kts 99°
2026-04-26 01:01 30.20374 -97.65856 525 ft 12 kts 94°
2026-04-26 01:02 30.20250 -97.65785 523 ft 37 kts 179°
2026-04-26 01:02 30.19675 -97.65771 522 ft 125 kts 179°
2026-04-26 01:02 30.18685 -97.65749 800 ft 146 kts 179°
2026-04-26 01:02 30.17728 -97.65760 1553 ft 137 kts 182°
2026-04-26 01:03 30.16682 -97.65777 1799 ft 165 kts 180°
2026-04-26 01:03 30.15453 -97.65603 1927 ft 198 kts 156°
2026-04-26 01:03 30.14335 -97.64464 2135 ft 235 kts 126°
2026-04-26 01:03 30.13933 -97.62525 2443 ft 268 kts 88°
2026-04-26 01:04 30.14732 -97.60596 3343 ft 276 kts 51°
2026-04-26 01:04 30.16378 -97.59465 4104 ft 285 kts 17°
2026-04-26 01:04 30.18322 -97.59084 5051 ft 284 kts
2026-04-26 01:04 30.20289 -97.58690 5836 ft 288 kts 12°
2026-04-26 01:05 30.22230 -97.58050 6578 ft 292 kts 17°
2026-04-26 01:05 30.24180 -97.57342 7374 ft 295 kts 15°
2026-04-26 01:05 30.26157 -97.56712 8310 ft 295 kts 13°
2026-04-26 01:05 30.28153 -97.56103 9203 ft 298 kts 13°
2026-04-26 01:06 30.30159 -97.55462 9993 ft 302 kts 13°
2026-04-26 01:06 30.32259 -97.54780 10172 ft 327 kts 13°
2026-04-26 01:06 30.34497 -97.53870 10125 ft 358 kts 26°
2026-04-26 01:06 30.36371 -97.51880 10493 ft 373 kts 52°
2026-04-26 01:07 30.37448 -97.49151 11170 ft 378 kts 76°
2026-04-26 01:07 30.37570 -97.46100 11728 ft 383 kts 92°
2026-04-26 01:07 30.37339 -97.43017 12313 ft 387 kts 96°
2026-04-26 01:07 30.37076 -97.39890 12862 ft 393 kts 94°
2026-04-26 01:08 30.36918 -97.36713 13418 ft 398 kts 92°
2026-04-26 01:08 30.36785 -97.33487 13919 ft 403 kts 92°
2026-04-26 01:08 30.36591 -97.30235 14446 ft 406 kts 94°
2026-04-26 01:08 30.36370 -97.26956 14948 ft 411 kts 93°
2026-04-26 01:09 30.36182 -97.23646 15449 ft 415 kts 92°
2026-04-26 01:09 30.36007 -97.20295 15970 ft 419 kts 92°
2026-04-26 01:09 30.35812 -97.16908 16516 ft 423 kts 93°
2026-04-26 01:09 30.35605 -97.13492 17063 ft 427 kts 93°
2026-04-26 01:10 30.35399 -97.10088 17623 ft 431 kts 93°
2026-04-26 01:10 30.35197 -97.06605 18159 ft 436 kts 92°
2026-04-26 01:10 30.35000 -97.03084 18670 ft 440 kts 92°
2026-04-26 01:10 30.34793 -96.99537 19197 ft 444 kts 93°
2026-04-26 01:11 30.34571 -96.95957 19720 ft 448 kts 93°
2026-04-26 01:11 30.34356 -96.92340 20260 ft 452 kts 92°
2026-04-26 01:11 30.34151 -96.88696 20793 ft 456 kts 92°
2026-04-26 01:11 30.33934 -96.85019 21328 ft 460 kts 92°
2026-04-26 01:12 30.33700 -96.81314 21848 ft 464 kts 92°
2026-04-26 01:12 30.33468 -96.77576 22319 ft 468 kts 92°
2026-04-26 01:12 30.33240 -96.73797 22837 ft 472 kts 92°
2026-04-26 01:12 30.33006 -96.69983 23343 ft 477 kts 92°
2026-04-26 01:13 30.32765 -96.66143 23767 ft 480 kts 92°
2026-04-26 01:13 30.32522 -96.62274 24217 ft 484 kts 92°
2026-04-26 01:13 30.32276 -96.58368 24660 ft 488 kts 92°
2026-04-26 01:13 30.32026 -96.54441 25118 ft 491 kts 92°
2026-04-26 01:14 30.31775 -96.50480 25544 ft 495 kts 91°
2026-04-26 01:14 30.31522 -96.46497 25982 ft 499 kts 91°
2026-04-26 01:14 30.31269 -96.42533 26458 ft 501 kts 91°
2026-04-26 01:14 30.31006 -96.38502 26872 ft 505 kts 91°
2026-04-26 01:15 30.30740 -96.34434 27283 ft 508 kts 91°
2026-04-26 01:15 30.30475 -96.30339 27708 ft 512 kts 91°
2026-04-26 01:15 30.30209 -96.26221 28124 ft 515 kts 91°
2026-04-26 01:15 30.29936 -96.22072 28505 ft 519 kts 91°
2026-04-26 01:16 30.29657 -96.17896 28896 ft 522 kts 91°
2026-04-26 01:16 30.29378 -96.13692 29278 ft 526 kts 91°
2026-04-26 01:16 30.28811 -96.09486 29605 ft 533 kts 101°
2026-04-26 01:16 30.27704 -96.05377 30028 ft 537 kts 110°
2026-04-26 01:17 30.26080 -96.01464 30341 ft 541 kts 120°
2026-04-26 01:17 30.24004 -95.97827 30644 ft 543 kts 126°
2026-04-26 01:17 30.21823 -95.94264 31161 ft 541 kts 126°
2026-04-26 01:17 30.19662 -95.90705 31658 ft 542 kts 126°
2026-04-26 01:18 30.17493 -95.87128 32092 ft 542 kts 126°
2026-04-26 01:18 30.15319 -95.83565 32572 ft 542 kts 126°
2026-04-26 01:18 30.13139 -95.80005 33038 ft 542 kts 126°
2026-04-26 01:18 30.10964 -95.76442 33560 ft 543 kts 126°
2026-04-26 01:19 30.08819 -95.72921 33979 ft 543 kts 126°
2026-04-26 01:19 30.06635 -95.69349 34390 ft 544 kts 126°
2026-04-26 01:19 30.04450 -95.65785 34790 ft 544 kts 126°
2026-04-26 01:19 30.02262 -95.62222 35233 ft 544 kts 126°
2026-04-26 01:20 30.00074 -95.58653 35644 ft 545 kts 126°
2026-04-26 01:20 29.97888 -95.55081 36070 ft 543 kts 127°
2026-04-26 01:20 29.95710 -95.51538 36571 ft 540 kts 127°
2026-04-26 01:20 29.93529 -95.48002 36799 ft 545 kts 127°
2026-04-26 01:21 29.89057 -95.40733 36805 ft 565 kts 127°
2026-04-26 01:21 29.84438 -95.33250 36821 ft 582 kts 127°
2026-04-26 01:22 29.79676 -95.25539 36816 ft 597 kts 127°
2026-04-26 01:22 29.74843 -95.17736 36817 ft 600 kts 127°
2026-04-26 01:23 29.70023 -95.09965 36802 ft 599 kts 127°
2026-04-26 01:23 29.65172 -95.02161 36802 ft 600 kts 127°
2026-04-26 01:24 29.60315 -94.94364 36815 ft 600 kts 127°
2026-04-26 01:24 29.55450 -94.86564 36826 ft 600 kts 127°
2026-04-26 01:25 29.50578 -94.78772 36837 ft 600 kts 127°
2026-04-26 01:25 29.45707 -94.70990 36836 ft 600 kts 127°
2026-04-26 01:26 29.40843 -94.63247 36847 ft 598 kts 127°
2026-04-26 01:26 29.36012 -94.55555 36854 ft 598 kts 127°
2026-04-26 01:27 29.31142 -94.47825 36855 ft 598 kts 127°
2026-04-26 01:27 29.26263 -94.40097 36859 ft 598 kts 127°
2026-04-26 01:28 29.22212 -94.33682 36856 ft 598 kts 127°
2026-04-26 01:28 29.17330 -94.25972 36834 ft 597 kts 127°
2026-04-26 01:29 29.12448 -94.18285 36849 ft 597 kts 127°
2026-04-26 01:29 29.07574 -94.10604 36850 ft 597 kts 127°
2026-04-26 01:30 29.02687 -94.02939 36853 ft 597 kts 127°
2026-04-26 01:30 28.97801 -93.95272 36856 ft 597 kts 127°
2026-04-26 01:31 28.92909 -93.87621 36856 ft 596 kts 127°
2026-04-26 01:31 28.88014 -93.79972 36867 ft 595 kts 127°
2026-04-26 01:32 28.83117 -93.72340 36864 ft 596 kts 127°
2026-04-26 01:32 28.78218 -93.64711 36862 ft 596 kts 127°
2026-04-26 01:33 28.73312 -93.57092 36864 ft 596 kts 127°
2026-04-26 01:33 28.68404 -93.49480 36868 ft 596 kts 127°
2026-04-26 01:34 28.63487 -93.41872 36869 ft 598 kts 127°
2026-04-26 01:34 28.58558 -93.34253 36860 ft 596 kts 127°
2026-04-26 01:35 28.53668 -93.26713 36858 ft 596 kts 128°
2026-04-26 01:35 28.48740 -93.19128 36861 ft 596 kts 127°
2026-04-26 01:36 28.43812 -93.11551 36858 ft 596 kts 128°
2026-04-26 01:37 28.36403 -93.00186 36873 ft 597 kts 127°
2026-04-26 01:37 28.31456 -92.92617 36865 ft 595 kts 128°
2026-04-26 01:38 28.26483 -92.85108 36854 ft 595 kts 130°
2026-04-26 01:38 28.20518 -92.78717 36866 ft 589 kts 146°
2026-04-26 01:39 28.13765 -92.73499 36881 ft 587 kts 150°
2026-04-26 01:39 28.07143 -92.68043 36872 ft 590 kts 144°
2026-04-26 01:40 28.00601 -92.62564 36866 ft 586 kts 149°
2026-04-26 01:40 27.93943 -92.57202 36866 ft 588 kts 146°
2026-04-26 01:41 27.87372 -92.51693 36863 ft 587 kts 148°
2026-04-26 01:41 27.80718 -92.46340 36863 ft 588 kts 147°
2026-04-26 01:42 27.74131 -92.40858 36874 ft 588 kts 147°
2026-04-26 01:42 27.67472 -92.35496 36873 ft 588 kts 147°
2026-04-26 01:43 27.60872 -92.30048 36873 ft 588 kts 147°
2026-04-26 01:43 27.54224 -92.24673 36877 ft 588 kts 147°
2026-04-26 01:44 27.47593 -92.19250 36882 ft 589 kts 147°
2026-04-26 01:44 27.40952 -92.13873 36874 ft 587 kts 147°
2026-04-26 01:45 27.34371 -92.08524 36878 ft 587 kts 147°
2026-04-26 01:45 27.27730 -92.03152 36877 ft 587 kts 147°
2026-04-26 01:46 27.21100 -91.97786 36874 ft 587 kts 147°
2026-04-26 01:46 27.14464 -91.92430 36873 ft 585 kts 147°
2026-04-26 01:47 27.07838 -91.87092 36886 ft 587 kts 147°
2026-04-26 01:47 27.01210 -91.81749 36884 ft 587 kts 147°
2026-04-26 01:48 26.94572 -91.76427 36880 ft 587 kts 148°
2026-04-26 01:48 26.87938 -91.71099 36880 ft 587 kts 147°
2026-04-26 01:49 26.81309 -91.65786 36880 ft 584 kts 148°
2026-04-26 01:49 26.74693 -91.60497 36879 ft 584 kts 147°
2026-04-26 01:50 26.68074 -91.55204 36875 ft 584 kts 148°
2026-04-26 01:50 26.61450 -91.49925 36884 ft 586 kts 147°
2026-04-26 01:51 26.54823 -91.44634 36869 ft 584 kts 148°
2026-04-26 01:51 26.48212 -91.39397 36876 ft 583 kts 148°
2026-04-26 01:52 26.41609 -91.34134 36875 ft 583 kts 148°
2026-04-26 01:52 26.34999 -91.28903 36872 ft 583 kts 148°
2026-04-26 01:53 26.28388 -91.23659 36869 ft 583 kts 148°
2026-04-26 01:53 26.21776 -91.18435 36883 ft 581 kts 148°
2026-04-26 01:54 26.15225 -91.13259 36892 ft 582 kts 148°
2026-04-26 01:54 26.08610 -91.08043 36887 ft 582 kts 148°
2026-04-26 01:55 26.01998 -91.02835 36894 ft 582 kts 148°
2026-04-26 01:55 25.95382 -90.97634 36891 ft 582 kts 148°
2026-04-26 01:56 25.88784 -90.92451 36884 ft 580 kts 148°
2026-04-26 01:56 25.82192 -90.87282 36883 ft 580 kts 148°
2026-04-26 01:57 25.75599 -90.82113 36883 ft 580 kts 148°
2026-04-26 01:57 25.69003 -90.76965 36883 ft 580 kts 148°
2026-04-26 01:58 25.62435 -90.71831 36886 ft 580 kts 148°
2026-04-26 01:58 25.55802 -90.66658 36887 ft 579 kts 148°
2026-04-26 01:59 25.49254 -90.61560 36886 ft 579 kts 148°
2026-04-26 01:59 25.42665 -90.56430 36890 ft 579 kts 148°
2026-04-26 02:00 25.36062 -90.51311 36889 ft 579 kts 148°
2026-04-26 02:00 25.29469 -90.46189 36894 ft 578 kts 148°
2026-04-26 02:01 25.22879 -90.41089 36898 ft 578 kts 148°
2026-04-26 02:01 25.16289 -90.35991 36907 ft 579 kts 148°
2026-04-26 02:02 25.09682 -90.30884 36904 ft 579 kts 148°
2026-04-26 02:02 25.03082 -90.25797 36906 ft 579 kts 148°
2026-04-26 02:03 24.96493 -90.20715 36893 ft 577 kts 147°
2026-04-26 02:03 24.89904 -90.15650 36893 ft 577 kts 148°
2026-04-26 02:04 24.83315 -90.10584 36898 ft 577 kts 148°
2026-04-26 02:04 24.76769 -90.05566 36898 ft 577 kts 148°
2026-04-26 02:05 24.70182 -90.00513 36893 ft 577 kts 148°
2026-04-26 02:05 24.63571 -89.95456 36905 ft 579 kts 148°
2026-04-26 02:06 24.56941 -89.90386 36908 ft 580 kts 148°
2026-04-26 02:06 24.50305 -89.85323 36905 ft 580 kts 148°
2026-04-26 02:07 24.43674 -89.80261 36906 ft 581 kts 148°
2026-04-26 02:07 24.37040 -89.75212 36894 ft 579 kts 148°
2026-04-26 02:08 24.30429 -89.70172 36893 ft 579 kts 148°
2026-04-26 02:08 24.23804 -89.65147 36892 ft 579 kts 148°
2026-04-26 02:09 24.17181 -89.60109 36892 ft 579 kts 148°
2026-04-26 02:09 24.10597 -89.55131 36893 ft 579 kts 148°
2026-04-26 02:10 24.03981 -89.50112 36896 ft 577 kts 147°
2026-04-26 02:10 23.97364 -89.45117 36892 ft 578 kts 148°
2026-04-26 02:11 23.90748 -89.40116 36890 ft 578 kts 147°
2026-04-26 02:11 23.84137 -89.35129 36890 ft 578 kts 148°
2026-04-26 02:12 23.77517 -89.30144 36893 ft 578 kts 147°
2026-04-26 02:12 23.70954 -89.25201 36894 ft 576 kts 147°
2026-04-26 02:13 23.64334 -89.20228 36906 ft 578 kts 147°
2026-04-26 02:13 23.57714 -89.15255 36902 ft 578 kts 148°
2026-04-26 02:14 23.51089 -89.10292 36902 ft 578 kts 148°
2026-04-26 02:14 23.44467 -89.05328 36902 ft 578 kts 148°
2026-04-26 02:15 23.37853 -89.00381 36904 ft 577 kts 147°
2026-04-26 02:15 23.32353 -88.96270 36901 ft 577 kts 147°
2026-04-26 02:16 23.24653 -88.90525 36896 ft 576 kts 147°
2026-04-26 02:16 23.19120 -88.86396 36895 ft 574 kts 148°
2026-04-26 02:17 23.12505 -88.81477 36900 ft 577 kts 148°
2026-04-26 02:17 23.05941 -88.76588 36894 ft 575 kts 148°
2026-04-26 02:18 22.99331 -88.71683 36899 ft 575 kts 148°
2026-04-26 02:18 22.92730 -88.66779 36892 ft 575 kts 148°
2026-04-26 02:19 22.86123 -88.61886 36892 ft 575 kts 148°
2026-04-26 02:19 22.79514 -88.56991 36892 ft 575 kts 148°
2026-04-26 02:20 22.72926 -88.52125 36890 ft 572 kts 148°
2026-04-26 02:20 22.66338 -88.47274 36891 ft 572 kts 148°
2026-04-26 02:21 22.59730 -88.42410 36903 ft 575 kts 148°
2026-04-26 02:21 22.53117 -88.37541 36903 ft 575 kts 148°
2026-04-26 02:22 22.46501 -88.32675 36897 ft 575 kts 148°
2026-04-26 02:22 22.39905 -88.27837 36888 ft 572 kts 148°
2026-04-26 02:23 22.33321 -88.23009 36890 ft 572 kts 148°
2026-04-26 02:23 22.26735 -88.18184 36884 ft 572 kts 148°
2026-04-26 02:24 22.20132 -88.13354 36892 ft 574 kts 148°
2026-04-26 02:24 22.13523 -88.08520 36897 ft 574 kts 148°
2026-04-26 02:25 22.06980 -88.03737 36887 ft 570 kts 148°
2026-04-26 02:25 22.00406 -87.98941 36884 ft 570 kts 148°
2026-04-26 02:26 21.93834 -87.94147 36886 ft 570 kts 148°
2026-04-26 02:26 21.87260 -87.89362 36887 ft 570 kts 148°
2026-04-26 02:27 21.80675 -87.84571 36891 ft 570 kts 148°
2026-04-26 02:27 21.74094 -87.79788 36882 ft 572 kts 148°
2026-04-26 02:28 21.67504 -87.75015 36884 ft 571 kts 148°
2026-04-26 02:28 21.60906 -87.70230 36891 ft 572 kts 148°
2026-04-26 02:29 21.54302 -87.65453 36894 ft 572 kts 148°
2026-04-26 02:29 21.47702 -87.60681 36893 ft 572 kts 148°
2026-04-26 02:30 21.41102 -87.55915 36892 ft 572 kts 148°
2026-04-26 02:30 21.34499 -87.51151 36892 ft 572 kts 148°
2026-04-26 02:31 21.27883 -87.46386 36890 ft 572 kts 148°
2026-04-26 02:31 21.21282 -87.41629 36890 ft 572 kts 148°
2026-04-26 02:32 21.14672 -87.36877 36899 ft 572 kts 148°
2026-04-26 02:32 21.08093 -87.32160 36898 ft 566 kts 148°
2026-04-26 02:33 21.01537 -87.27448 36896 ft 567 kts 149°
2026-04-26 02:33 20.94979 -87.22753 36898 ft 567 kts 149°
2026-04-26 02:34 20.88459 -87.18084 36900 ft 567 kts 149°
2026-04-26 02:34 20.81899 -87.13399 36901 ft 567 kts 149°
2026-04-26 02:35 20.75338 -87.08709 36898 ft 564 kts 149°
2026-04-26 02:35 20.68796 -87.04053 36900 ft 565 kts 149°
2026-04-26 02:36 20.62261 -86.99390 36902 ft 565 kts 149°
2026-04-26 02:36 20.55713 -86.94735 36902 ft 565 kts 149°
2026-04-26 02:37 20.49128 -86.90162 36900 ft 564 kts 152°
2026-04-26 02:37 20.42323 -86.86010 36904 ft 563 kts 153°
2026-04-26 02:38 20.35555 -86.81797 36900 ft 563 kts 152°
2026-04-26 02:38 20.28768 -86.77619 36897 ft 563 kts 153°
2026-04-26 02:39 20.21991 -86.73437 36895 ft 563 kts 153°
2026-04-26 02:39 20.15254 -86.69285 36892 ft 563 kts 153°
2026-04-26 02:40 20.08461 -86.65129 36899 ft 562 kts 153°
2026-04-26 02:40 20.01678 -86.60989 36895 ft 562 kts 154°
2026-04-26 02:41 19.94879 -86.56836 36895 ft 563 kts 153°
2026-04-26 02:41 19.88094 -86.52704 36893 ft 562 kts 154°
2026-04-26 02:42 19.81308 -86.48572 36892 ft 562 kts 154°
2026-04-26 02:42 19.74530 -86.44449 36888 ft 558 kts 154°
2026-04-26 02:43 19.64422 -86.38304 36890 ft 558 kts 154°
2026-04-26 02:43 19.57833 -86.34016 36894 ft 561 kts 150°
2026-04-26 02:44 19.51335 -86.29434 36903 ft 561 kts 150°
2026-04-26 02:44 19.44774 -86.24960 36900 ft 561 kts 150°
2026-04-26 02:45 19.38283 -86.20422 36893 ft 557 kts 150°
2026-04-26 02:45 19.31772 -86.15963 36889 ft 556 kts 151°
2026-04-26 02:46 19.25291 -86.11468 36892 ft 557 kts 150°
2026-04-26 02:46 19.18791 -86.07003 36892 ft 557 kts 151°
2026-04-26 02:47 19.12305 -86.02525 36888 ft 557 kts 150°
2026-04-26 02:47 19.05810 -85.98063 36890 ft 554 kts 151°
2026-04-26 02:48 18.99346 -85.93617 36887 ft 555 kts 150°
2026-04-26 02:48 18.92872 -85.89173 36887 ft 554 kts 151°
2026-04-26 02:49 18.86399 -85.84732 36890 ft 554 kts 150°
2026-04-26 02:49 18.79932 -85.80298 36890 ft 554 kts 151°
2026-04-26 02:50 18.73461 -85.75869 36889 ft 554 kts 151°
2026-04-26 02:50 18.67069 -85.71494 36891 ft 550 kts 151°
2026-04-26 02:51 18.60648 -85.67106 36889 ft 550 kts 151°
2026-04-26 02:51 18.54218 -85.62717 36889 ft 550 kts 151°
2026-04-26 02:52 18.47792 -85.58331 36891 ft 550 kts 151°
2026-04-26 02:52 18.41358 -85.53948 36891 ft 550 kts 151°
2026-04-26 02:53 18.34937 -85.49571 36890 ft 547 kts 151°
2026-04-26 02:53 18.28529 -85.45212 36890 ft 548 kts 151°
2026-04-26 02:54 18.22128 -85.40861 36888 ft 547 kts 151°
2026-04-26 02:54 18.15730 -85.36518 36888 ft 547 kts 151°
2026-04-26 02:55 18.09335 -85.32174 36891 ft 547 kts 151°
2026-04-26 02:55 18.02934 -85.27841 36891 ft 547 kts 151°
2026-04-26 02:56 17.96581 -85.23529 36891 ft 547 kts 151°
2026-04-26 02:56 17.90173 -85.19201 36887 ft 547 kts 151°
2026-04-26 02:57 17.83778 -85.14867 36891 ft 547 kts 151°
2026-04-26 02:57 17.77373 -85.10546 36891 ft 547 kts 151°
2026-04-26 02:58 17.70970 -85.06221 36891 ft 547 kts 151°
2026-04-26 02:58 17.64589 -85.01916 36893 ft 544 kts 151°
2026-04-26 02:59 17.58218 -84.97626 36893 ft 544 kts 151°
2026-04-26 02:59 17.51851 -84.93333 36893 ft 544 kts 151°
2026-04-26 03:00 17.45474 -84.89050 36892 ft 544 kts 151°
2026-04-26 03:00 17.40180 -84.85488 36892 ft 544 kts 151°
2026-04-26 03:01 17.33808 -84.81207 36893 ft 544 kts 151°
2026-04-26 03:01 17.27452 -84.76941 36894 ft 542 kts 151°
2026-04-26 03:02 17.21098 -84.72684 36892 ft 542 kts 151°
2026-04-26 03:02 17.14748 -84.68422 36892 ft 542 kts 151°
2026-04-26 03:03 17.08397 -84.64179 36895 ft 541 kts 152°
2026-04-26 03:03 17.02099 -84.59958 36895 ft 541 kts 152°
2026-04-26 03:04 16.95758 -84.55723 36894 ft 538 kts 152°
2026-04-26 03:04 16.89446 -84.51508 36893 ft 538 kts 152°
2026-04-26 03:05 16.83131 -84.47292 36892 ft 538 kts 152°
2026-04-26 03:05 16.76817 -84.43081 36892 ft 538 kts 152°
2026-04-26 03:06 16.70500 -84.38879 36895 ft 538 kts 152°
2026-04-26 03:06 16.64193 -84.34670 36892 ft 538 kts 152°
2026-04-26 03:07 16.57870 -84.30475 36893 ft 537 kts 151°
2026-04-26 03:07 16.51568 -84.26276 36893 ft 538 kts 152°
2026-04-26 03:08 16.45252 -84.22088 36898 ft 537 kts 152°
2026-04-26 03:08 16.38942 -84.17895 36897 ft 538 kts 151°
2026-04-26 03:09 16.32632 -84.13700 36895 ft 538 kts 152°
2026-04-26 03:09 16.26363 -84.09541 36882 ft 538 kts 151°
2026-04-26 03:10 16.20077 -84.05368 36888 ft 536 kts 151°
2026-04-26 03:10 16.13788 -84.01203 36888 ft 536 kts 151°
2026-04-26 03:11 16.07501 -83.97039 36883 ft 536 kts 151°
2026-04-26 03:11 16.01208 -83.92873 36883 ft 536 kts 151°
2026-04-26 03:12 15.94913 -83.88712 36890 ft 536 kts 151°
2026-04-26 03:12 15.88634 -83.84559 36891 ft 532 kts 151°
2026-04-26 03:13 15.82385 -83.80439 36888 ft 532 kts 151°
2026-04-26 03:13 15.76136 -83.76311 36887 ft 532 kts 151°
2026-04-26 03:14 15.69884 -83.72191 36887 ft 532 kts 151°
2026-04-26 03:14 15.63627 -83.68069 36887 ft 532 kts 151°
2026-04-26 03:15 15.57372 -83.63951 36890 ft 532 kts 151°
2026-04-26 03:15 15.51136 -83.59847 36890 ft 528 kts 150°
2026-04-26 03:16 15.44929 -83.55768 36890 ft 529 kts 150°
2026-04-26 03:16 15.38712 -83.51684 36894 ft 529 kts 150°
2026-04-26 03:17 15.32498 -83.47603 36894 ft 529 kts 150°
2026-04-26 03:17 15.26283 -83.43530 36894 ft 529 kts 150°
2026-04-26 03:18 15.20109 -83.39479 36893 ft 529 kts 150°
2026-04-26 03:18 15.13902 -83.35418 36890 ft 527 kts 150°
2026-04-26 03:19 15.07659 -83.31329 36891 ft 528 kts 150°
2026-04-26 03:19 15.01455 -83.27273 36891 ft 528 kts 150°
2026-04-26 03:20 14.95288 -83.23241 36897 ft 528 kts 150°
2026-04-26 03:20 14.89078 -83.19185 36898 ft 527 kts 150°
2026-04-26 03:21 14.82861 -83.15148 36900 ft 527 kts 150°
2026-04-26 03:21 14.76677 -83.11093 36896 ft 526 kts 150°
2026-04-26 03:22 14.70476 -83.07062 36897 ft 526 kts 150°
2026-04-26 03:22 14.64283 -83.03022 36898 ft 526 kts 150°
2026-04-26 03:23 14.58085 -82.98988 36900 ft 526 kts 150°
2026-04-26 03:23 14.51894 -82.94960 36904 ft 526 kts 150°
2026-04-26 03:24 14.45693 -82.90929 36901 ft 526 kts 150°
2026-04-26 03:24 14.39497 -82.86904 36898 ft 526 kts 150°
2026-04-26 03:25 14.33299 -82.82878 36903 ft 526 kts 150°
2026-04-26 03:25 14.27102 -82.78859 36901 ft 526 kts 150°
2026-04-26 03:26 14.20905 -82.74841 36903 ft 526 kts 150°
2026-04-26 03:26 14.14747 -82.70850 36902 ft 526 kts 150°
2026-04-26 03:27 14.08511 -82.66813 36906 ft 526 kts 150°
2026-04-26 03:27 14.02353 -82.62828 36903 ft 526 kts 150°
2026-04-26 03:28 13.96156 -82.58822 36904 ft 526 kts 150°
2026-04-26 03:28 13.89958 -82.54813 36905 ft 526 kts 150°
2026-04-26 03:29 13.83749 -82.50815 36907 ft 526 kts 150°
2026-04-26 03:29 13.77547 -82.46825 36910 ft 526 kts 150°
2026-04-26 03:30 13.71336 -82.42830 36917 ft 526 kts 150°
2026-04-26 03:30 13.65130 -82.38843 36923 ft 526 kts 151°
2026-04-26 03:31 13.58926 -82.34858 36913 ft 526 kts 151°
2026-04-26 03:31 13.52723 -82.30876 36914 ft 526 kts 151°
2026-04-26 03:32 13.46517 -82.26897 36910 ft 526 kts 151°
2026-04-26 03:32 13.40312 -82.22919 36921 ft 526 kts 151°
2026-04-26 03:33 13.34096 -82.18937 36923 ft 528 kts 151°
2026-04-26 03:33 13.27869 -82.14948 36918 ft 527 kts 151°
2026-04-26 03:34 13.21643 -82.10966 36912 ft 528 kts 151°
2026-04-26 03:34 13.15414 -82.06982 36909 ft 527 kts 151°
2026-04-26 03:35 13.09181 -82.03000 36909 ft 527 kts 151°
2026-04-26 03:35 13.02956 -81.99022 36917 ft 527 kts 151°
2026-04-26 03:36 12.96716 -81.95040 36916 ft 529 kts 152°
2026-04-26 03:36 12.90507 -81.91078 36911 ft 529 kts 152°
2026-04-26 03:37 12.84258 -81.87095 36916 ft 529 kts 152°
2026-04-26 03:37 12.78008 -81.83112 36912 ft 529 kts 152°
2026-04-26 03:38 12.71762 -81.79134 36914 ft 529 kts 152°
2026-04-26 03:38 12.65508 -81.75155 36902 ft 529 kts 152°
2026-04-26 03:39 12.59265 -81.71184 36903 ft 528 kts 152°
2026-04-26 03:39 12.52905 -81.67448 36909 ft 527 kts 154°
2026-04-26 03:40 12.46527 -81.63763 36905 ft 526 kts 154°
2026-04-26 03:40 12.40158 -81.60081 36914 ft 526 kts 154°
2026-04-26 03:41 12.33788 -81.56407 36914 ft 526 kts 154°
2026-04-26 03:41 12.27410 -81.52724 36907 ft 526 kts 154°
2026-04-26 03:42 12.21027 -81.49046 36929 ft 527 kts 154°
2026-04-26 03:42 12.14641 -81.45364 36930 ft 527 kts 154°
2026-04-26 03:43 12.08254 -81.41687 36932 ft 527 kts 154°
2026-04-26 03:43 12.02939 -81.38626 36927 ft 527 kts 154°
2026-04-26 03:44 11.95677 -81.34449 36930 ft 527 kts 154°
2026-04-26 03:44 11.90362 -81.31391 36923 ft 527 kts 154°
2026-04-26 03:45 11.83962 -81.27714 36923 ft 527 kts 153°
2026-04-26 03:45 11.77582 -81.24048 36924 ft 526 kts 153°
2026-04-26 03:46 11.71199 -81.20384 36928 ft 526 kts 153°
2026-04-26 03:47 11.61626 -81.14891 36927 ft 526 kts 153°
2026-04-26 03:47 11.55250 -81.11235 36925 ft 526 kts 153°
2026-04-26 03:48 11.48884 -81.07586 36932 ft 524 kts 153°
2026-04-26 03:48 11.42533 -81.03948 36931 ft 524 kts 153°
2026-04-26 03:49 11.36214 -81.00331 36926 ft 524 kts 153°
2026-04-26 03:49 11.29859 -80.96695 36931 ft 524 kts 153°
2026-04-26 03:50 11.23500 -80.93058 36931 ft 524 kts 153°
2026-04-26 03:50 11.17128 -80.89416 36929 ft 524 kts 153°
2026-04-26 03:51 11.10764 -80.85780 36933 ft 525 kts 153°
2026-04-26 03:51 11.04391 -80.82141 36932 ft 525 kts 153°
2026-04-26 03:52 10.98022 -80.78506 36925 ft 525 kts 153°
2026-04-26 03:52 10.91641 -80.74866 36926 ft 525 kts 153°
2026-04-26 03:53 10.85269 -80.71233 36930 ft 525 kts 153°
2026-04-26 03:53 10.78892 -80.67598 36931 ft 525 kts 153°
2026-04-26 03:54 10.72519 -80.63968 36927 ft 525 kts 153°
2026-04-26 03:54 10.66136 -80.60339 36931 ft 525 kts 153°
2026-04-26 03:55 10.59721 -80.56778 36934 ft 525 kts 154°
2026-04-26 03:55 10.53330 -80.53190 36930 ft 524 kts 153°
2026-04-26 03:56 10.46960 -80.49638 36928 ft 522 kts 154°
2026-04-26 03:56 10.40592 -80.46077 36932 ft 523 kts 153°
2026-04-26 03:57 10.34252 -80.42538 36933 ft 523 kts 153°
2026-04-26 03:57 10.27876 -80.38981 36936 ft 519 kts 153°
2026-04-26 03:57 10.24873 -80.37295 36946 ft 460 kts 153°
2026-04-26 03:58 10.22222 -80.35801 36611 ft 408 kts 154°
2026-04-26 03:58 10.19843 -80.34479 34744 ft 379 kts 155°
2026-04-26 03:58 10.17528 -80.33213 31313 ft 385 kts 154°
2026-04-26 03:58 10.14998 -80.31821 28189 ft 444 kts 153°
2026-04-26 03:59 10.12221 -80.30257 26811 ft 455 kts 152°
2026-04-26 03:59 10.09508 -80.28724 26779 ft 447 kts 152°
2026-04-26 03:59 10.06742 -80.27188 26818 ft 456 kts 152°
2026-04-26 03:59 10.03952 -80.25645 26851 ft 459 kts 152°
2026-04-26 04:00 10.01146 -80.24080 26878 ft 461 kts 152°
2026-04-26 04:00 9.98339 -80.22508 26894 ft 463 kts 152°
2026-04-26 04:00 9.95514 -80.20936 26900 ft 462 kts 152°
2026-04-26 04:00 9.92686 -80.19368 26699 ft 465 kts 152°
2026-04-26 04:01 9.89852 -80.17793 26095 ft 461 kts 152°
2026-04-26 04:01 9.87066 -80.16238 25480 ft 454 kts 152°
2026-04-26 04:01 9.84349 -80.14726 24902 ft 448 kts 152°
2026-04-26 04:01 9.81619 -80.13210 24305 ft 445 kts 151°
2026-04-26 04:02 9.78918 -80.11709 23725 ft 440 kts 151°
2026-04-26 04:02 9.76243 -80.10220 23099 ft 437 kts 151°
2026-04-26 04:02 9.73596 -80.08748 22524 ft 434 kts 151°
2026-04-26 04:02 9.70950 -80.07278 21947 ft 429 kts 151°
2026-04-26 04:03 9.68341 -80.05830 21386 ft 428 kts 151°
2026-04-26 04:03 9.65745 -80.04388 20822 ft 423 kts 151°
2026-04-26 04:03 9.63167 -80.02955 20267 ft 421 kts 151°
2026-04-26 04:03 9.60618 -80.01539 19715 ft 416 kts 151°
2026-04-26 04:04 9.58086 -80.00134 19165 ft 413 kts 152°
2026-04-26 04:04 9.55574 -79.98740 18621 ft 411 kts 152°
2026-04-26 04:04 9.53073 -79.97351 18058 ft 408 kts 152°
2026-04-26 04:04 9.50594 -79.95975 17505 ft 404 kts 152°
2026-04-26 04:05 9.48136 -79.94611 16969 ft 401 kts 152°
2026-04-26 04:05 9.45702 -79.93261 16447 ft 397 kts 152°
2026-04-26 04:05 9.43288 -79.91922 15920 ft 394 kts 152°
2026-04-26 04:05 9.40893 -79.90594 15403 ft 391 kts 152°
2026-04-26 04:06 9.38519 -79.89277 14887 ft 388 kts 152°
2026-04-26 04:06 9.36192 -79.87987 14384 ft 385 kts 152°
2026-04-26 04:06 9.33845 -79.86686 13876 ft 382 kts 152°
2026-04-26 04:06 9.31525 -79.85400 13336 ft 378 kts 151°
2026-04-26 04:07 9.29232 -79.84130 12842 ft 375 kts 151°
2026-04-26 04:07 9.26956 -79.82869 12350 ft 372 kts 151°
2026-04-26 04:07 9.24696 -79.81616 11861 ft 369 kts 151°
2026-04-26 04:07 9.22453 -79.80374 11375 ft 365 kts 151°
2026-04-26 04:08 9.20288 -79.79175 10900 ft 343 kts 151°
2026-04-26 04:08 9.18255 -79.78049 10458 ft 324 kts 151°
2026-04-26 04:08 9.16329 -79.76983 10045 ft 308 kts 151°
2026-04-26 04:08 9.14474 -79.75956 9624 ft 300 kts 151°
2026-04-26 04:09 9.12653 -79.74948 9222 ft 296 kts 151°
2026-04-26 04:09 9.10857 -79.73953 8859 ft 293 kts 151°
2026-04-26 04:09 9.09072 -79.72966 8513 ft 292 kts 151°
2026-04-26 04:09 9.07294 -79.71982 8128 ft 291 kts 151°
2026-04-26 04:10 9.05525 -79.71004 7745 ft 289 kts 152°
2026-04-26 04:10 9.03766 -79.70037 7363 ft 287 kts 151°
2026-04-26 04:10 9.02044 -79.69082 6995 ft 277 kts 151°
2026-04-26 04:10 9.00386 -79.68163 6624 ft 267 kts 151°
2026-04-26 04:11 8.98782 -79.67276 6271 ft 258 kts 152°
2026-04-26 04:11 8.97228 -79.66416 5920 ft 251 kts 151°
2026-04-26 04:11 8.95722 -79.65583 5595 ft 244 kts 152°
2026-04-26 04:11 8.94273 -79.64782 5277 ft 237 kts 151°
2026-04-26 04:12 8.92844 -79.63990 4975 ft 231 kts 150°
2026-04-26 04:12 8.91454 -79.63218 4671 ft 225 kts 150°
2026-04-26 04:12 8.90090 -79.62468 4365 ft 221 kts 151°
2026-04-26 04:12 8.88784 -79.61746 4073 ft 206 kts 151°
2026-04-26 04:13 8.87572 -79.61075 3800 ft 192 kts 151°
2026-04-26 04:13 8.86439 -79.60447 3564 ft 180 kts 151°
2026-04-26 04:13 8.85419 -79.59777 3292 ft 172 kts 135°
2026-04-26 04:13 8.84932 -79.58714 3074 ft 166 kts 101°
2026-04-26 04:14 8.85101 -79.57560 2865 ft 171 kts 68°
2026-04-26 04:14 8.85907 -79.56688 2579 ft 173 kts 31°
2026-04-26 04:14 8.87060 -79.56358 2334 ft 173 kts 12°
2026-04-26 04:14 8.88265 -79.56218 2035 ft 175 kts
2026-04-26 04:15 8.89466 -79.56201 1742 ft 164 kts
2026-04-26 04:15 8.90531 -79.56134 1471 ft 144 kts
2026-04-26 04:15 8.91500 -79.56053 1257 ft 138 kts
2026-04-26 04:15 8.92447 -79.55973 1047 ft 134 kts
2026-04-26 04:16 8.93364 -79.55898 1102 ft 134 kts
2026-04-26 04:16 8.94319 -79.55825 888 ft 140 kts
2026-04-26 04:16 8.95265 -79.55746 541 ft 133 kts
2026-04-26 04:16 8.96181 -79.55675 152 ft 131 kts
2026-04-26 04:17 8.97025 -79.55583 30 ft 111 kts
2026-04-26 04:17 8.97614 -79.55532 33 ft 55 kts
2026-04-26 04:17 8.97883 -79.55509 34 ft 34 kts
2026-04-26 04:17 8.98082 -79.55501 33 ft 14 kts 353°
2026-04-26 04:18 8.98139 -79.55534 33 ft 8 kts 280°
2026-04-26 04:18 8.98117 -79.55583 33 ft 8 kts 198°
2026-04-26 04:18 8.98065 -79.55590 33 ft 7 kts 188°
2026-04-26 04:18 8.97997 -79.55593 32 ft 17 kts 191°
2026-04-26 04:19 8.97826 -79.55609 32 ft 33 kts 186°
2026-04-26 04:19 8.97569 -79.55648 31 ft 37 kts 198°
2026-04-26 04:19 8.97334 -79.55737 31 ft 35 kts 199°
2026-04-26 04:19 8.97162 -79.55830 32 ft 12 kts 158°
2026-04-26 04:20 8.97136 -79.55798 33 ft 2 kts 129°
2026-04-26 04:20 8.97135 -79.55797 33 ft 0 kts 129°